Home > Weather > Battambang > Past weeks

Flag for Cambodia Weather for the Past 2 Weeks in Battambang, Cambodia

Now
82 °F

Passing clouds.


Feels Like: 91 °F
Forecast: 80 / 101 °F
Wind: 1 mph from Southeast

Location: Siemreap

Current Time: May 3, 2016 at 8:38:43 AM

Latest Report: May 3, 2016 at 7:00 AM


Visibility: 5 mi

Pressure: 29.77 "Hg

Humidity: 84%

Dew Point: 77 °F

Location of BattambangLocation

Historic Weather in Battambang — Graph

°F

Battambang Temperature Yesterday

Maximum temperature yesterday: 102 °F (at 2:30 PM)
Minimum temperature yesterday: 81 °F (at 2:30 AM)
Average temperature yesterday: 92 °F

High & Low Weather Summary for the Past Weeks

 TemperatureHumidityPressure
High104 °F (Apr 18, 2:30 PM)100% (Apr 30, 1:00 PM)29.89 "Hg (Apr 30, 1:00 PM)
Low73 °F (May 1, 7:00 AM)19% (Apr 18, 2:30 PM)29.56 "Hg (Apr 27, 4:30 PM)
Average91 °F54%29.73 "Hg
* Reported Apr 18 7:00 AM — May 3 7:00 AM, Battambang, Weather by CustomWeather, © 2016

Note: Actual official high and low records may vary slightly from our data, if they occured in-between our weather recording intervals... More about our weather records

Advertising

Battambang Weather History for the Previous 24 Hours

Scroll right to see more
 ConditionsComfort  
Time TempWeatherWind HumidityBarometerVisibility
7:00 AM
Tue, May 3
82 °FPassing clouds.1 mph84%29.77 "Hg5 mi
2:30 AM84 °FClear.No wind66%29.71 "Hg5 mi
2:00 AM84 °FClear.2 mph66%29.74 "Hg5 mi
1:30 AM84 °FClear.2 mph66%29.74 "Hg5 mi
1:00 AM84 °FClear.2 mph66%29.74 "Hg5 mi
12:30 AM84 °FClear.5 mph66%29.74 "Hg5 mi
12:00 AM84 °FClear.6 mph66%29.74 "Hg5 mi
11:30 PM
Mon, May 2
84 °FClear.6 mph66%29.77 "Hg5 mi
11:00 PM86 °FClear.6 mph62%29.77 "Hg5 mi
10:30 PM86 °FClear.6 mph62%29.77 "Hg5 mi
10:00 PM88 °FClear.7 mph59%29.77 "Hg5 mi
9:30 PM88 °FClear.7 mph59%29.77 "Hg5 mi
9:00 PM90 °FClear.5 mph55%29.77 "Hg5 mi
8:30 PM90 °FClear.7 mph55%29.77 "Hg5 mi
8:00 PM90 °FClear.7 mph55%29.74 "Hg5 mi
7:30 PM90 °FClear.7 mph55%29.74 "Hg5 mi
7:00 PM93 °FClear.12 mph53%29.71 "Hg5 mi
6:30 PM95 °FPassing clouds.No wind44%29.71 "Hg6 mi
6:00 PM95 °FPassing clouds.6 mph44%29.68 "Hg6 mi
5:30 PM95 °FPassing clouds.8 mph44%29.68 "Hg6 mi
5:00 PM97 °FScattered clouds.7 mph44%29.68 "Hg6 mi
4:30 PM97 °FLight rain. Scattered clouds.8 mph44%29.65 "Hg6 mi
4:00 PM99 °FScattered clouds.3 mph35%29.65 "HgN/A
3:30 PM99 °FScattered clouds.5 mph35%29.65 "HgN/A
2:30 PM102 °FScattered clouds.3 mph31%29.68 "HgN/A
2:00 PM100 °FScattered clouds.6 mph35%29.71 "HgN/A
1:30 PM99 °FScattered clouds.6 mph37%29.71 "HgN/A
1:00 PM99 °FPassing clouds.6 mph37%29.74 "HgN/A
12:00 PM97 °FScattered clouds.6 mph39%29.77 "HgN/A
11:30 AM97 °FScattered clouds.9 mph39%29.80 "HgN/A
11:00 AM97 °FPassing clouds.6 mph39%29.80 "HgN/A
10:30 AM93 °FPassing clouds.5 mph49%29.83 "HgN/A
9:30 AM91 °FPassing clouds.6 mph59%29.83 "HgN/A
9:00 AM91 °FSunny.3 mph59%29.83 "Hg10 mi
8:30 AM88 °FSunny.3 mph66%29.83 "Hg10 mi
Weather by CustomWeather, © 2016

See weather overviewHow to use our weather pages